Regional Weather Roundup
Issued by NWS Goodland, KS

Home | Current Version | Previous Version | Graphics & Text | Print | Product List | Glossary On
Versions: 1 2 3 4 5 6 7 8 9 10 11 12 13 14 15 16 17 18 19 20 21 22 23 24 25 26 27 28 29 30 31 32 33 34 35 36 37 38 39 40 41 42 43 44 45 46 47 48 49 50
000
ASUS43 KGLD 210359
RWRGLD

GOODLAND FORECAST AREA HOURLY WEATHER ROUNDUP
NATIONAL WEATHER SERVICE GOODLAND KS
1000 PM MDT WED SEP 20 2017

...OFFICIAL OBSERVATIONS...

CITY           SKY/WX    TMP DP  RH WIND       PRES   REMARKS
GOODLAND KS    CLEAR     55  35  47 SE7       29.90S
HILL CITY KS   CLEAR     60  39  45 E6        29.89S
IMPERIAL NEB   CLEAR     53  35  50 SE7       29.89R
MCCOOK NEB     CLEAR     60  39  45 E9        29.88F
AKRON CO       CLEAR     55  30  38 SE13      29.90R
BURLINGTON CO  CLEAR     58  35  42 S9        29.92S
LIMON CO       CLEAR     56  33  42 SE14      29.93S
$$

...UNOFFICIAL OBSERVATIONS...

CITY           SKY/WX    TMP DP  RH WIND       PRES   REMARKS
LENORA KS        N/A     63  32  31 MISG        N/A
NORTON KS      CLEAR     55  36  47 NE3       29.88S
SHARON SPRINGS   N/A     58  39  49 SE8         N/A
TRENTON NEB      N/A     58  32  37 SE7         N/A
KIT CARSON CO    N/A     61  36  39 MISG        N/A
YUMA CO        FAIR      54  34  47 SE6       29.89S
$$




USA.gov is the U.S. government's official web portal to all federal, state and local government web resources and services.